[[[{"header":{"parameterUnit":"kt","parameterCategory":2,"dx":1,"dy":1,"la1":30.253999710083008,"la2":30.299108505249023,"lo1":-89.0895004272461,"lo2":-89.04439544677734,"nx":28,"ny":28,"refTime":"2022-10-10T21:00:00:Z","depth":0,"parameterNumber":1,"parameterNumberName":"U-component_of_WINDS"},"data":[-6.552,-6.5704,-6.5665,-6.5857,-6.5854,-6.5978,-6.601,-6.6047,-6.6066,-6.6209,-6.6284,-6.6263,-6.6267,-6.6347,-6.6426,-6.6414,-6.6452,-6.6544,-6.6516,-6.6135,-6.608,-6.6028,-6.5982,-6.6553,-6.6553,-6.6916,-6.6919,-6.6922,-6.5242,-6.5241,-6.5331,-6.5393,-6.5469,-6.5356,-6.5395,-6.5467,-6.5581,-6.5606,-6.5678,-6.5801,-6.5892,-6.5864,-6.5945,-6.603,-6.5981,-6.6055,-6.6049,-6.6051,-6.5643,-6.5594,-6.6092,-6.6092,-6.6092,-6.6092,-6.6092,-6.6092,-6.4725,-6.4837,-6.4851,-6.4948,-6.4968,-6.5009,-6.5109,-6.5081,-6.5169,-6.525,-6.5185,-6.5314,-6.5331,-6.541,-6.5427,-6.5526,-6.5437,-6.5506,-6.5523,-6.5542,-6.5569,-6.5052,-6.5537,-6.5536,-6.5534,-6.5533,-6.5532,0,-6.4335,-6.4295,-6.4378,-6.4452,-6.452,-6.4573,-6.4614,-6.4675,-6.4575,-6.4652,-6.476,-6.4815,-6.4924,-6.5021,-6.5088,-6.5091,-6.4983,-6.4967,-6.5014,-6.5049,-6.507,-6.5062,-6.4399,-6.4954,-6.4949,-6.4945,-6.4943,-6.4941,-6.3812,-6.3947,-6.3943,-6.4007,-6.402,-6.4126,-6.418,-6.4082,-6.4145,-6.4181,-6.4285,-6.438,-6.4452,-6.4631,-6.4596,-6.4678,-6.4627,-6.4843,-6.4639,-6.4665,-6.4632,-6.4626,-6.4639,-6.4886,-6.4893,-6.4899,-6.4903,0,-6.3521,-6.3456,-6.3654,-6.3635,-6.3635,-6.3782,-6.3766,-6.3874,-6.3834,-6.3977,-6.4005,-6.3944,-6.4052,-6.3981,-6.4091,-6.4051,-6.4292,-6.4238,-6.4284,-6.427,-6.4458,-6.4442,-6.5077,-6.5155,-6.456,-6.4566,-6.4571,0,-6.3051,-6.3233,-6.3125,-6.3243,-6.3441,-6.3337,-6.3536,-6.3522,-6.3535,-6.3646,-6.351,-6.3618,-6.3511,-6.3609,-6.3551,-6.3735,-6.3755,-6.3736,-6.3719,-6.375,-6.3753,-6.3784,-6.3758,-6.3673,-6.367,-6.3667,-6.3664,0,-6.2605,-6.276,-6.295,-6.2975,-6.2975,-6.3067,-6.3071,-6.3085,-6.314,-6.32,-6.3234,-6.3311,-6.3355,-6.3416,-6.3341,-6.3205,-6.3564,-6.3362,-6.3545,-6.3548,-6.3631,-6.3627,-6.4204,-6.366,-6.3659,-6.3658,-6.3657,0,-6.2215,-6.2278,-6.2564,-6.2559,-6.2605,-6.2731,-6.2799,-6.289,-6.2915,-6.2886,-6.2932,-6.2834,-6.2988,-6.2792,-6.3003,-6.2848,-6.2898,-6.2893,-6.2905,-6.2917,-6.2701,-6.3038,-6.3592,-6.3648,-6.2924,-6.2918,-6.2913,0,-6.1723,-6.1994,-6.1907,-6.2182,-6.2297,-6.2136,-6.2273,-6.23,-6.2272,-6.2366,-6.2334,-6.2443,-6.2282,-6.2306,-6.242,-6.2393,-6.2596,-6.2363,-6.2502,-6.2508,-6.2502,-6.301,-6.3111,-6.3477,-6.2833,-6.2842,-6.2848,0,-6.1334,-6.1331,-6.1387,-6.1411,-6.1429,-6.1525,-6.1683,-6.1767,-6.1834,-6.1879,-6.2009,-6.2159,-6.2044,-6.2086,-6.2015,-6.2137,-6.2455,-6.1998,-6.1997,-6.2084,-6.2787,-6.2882,-6.2944,-6.238,-6.239,-6.2397,-6.2785,0,-6.0762,-6.0889,-6.1035,-6.1094,-6.1157,-6.1325,-6.125,-6.1325,-6.1249,-6.1217,-6.1407,-6.1412,-6.1499,-6.155,-6.1478,-6.1779,-6.1719,-6.1595,-6.1402,-6.1735,-6.1861,-6.1913,-6.122,-6.1214,-6.1209,-6.1204,0,0,-6.0309,-6.0489,-6.0389,-6.0539,-6.0586,-6.0417,-6.0603,-6.0629,-6.0688,-6.0725,-6.0615,-6.083,-6.0839,-6.1079,-6.1177,-6.1212,-6.1259,-6.1147,-6.1577,-6.1619,-6.1657,-6.1793,-6.1848,-6.1195,-6.1193,-6.1191,-6.119,0,-6.0085,-6.0096,-6.0281,-6.0303,-6.0332,-6.0288,-6.0333,-6.0333,-6.0321,-6.0506,-6.0366,-6.0471,-6.0647,-6.0675,-6.0713,-6.1114,-6.1004,-6.1146,-6.1388,-6.1527,-6.1576,-6.1619,-6.1763,-6.1816,-6.1177,-6.1178,-6.1178,0,-5.9689,-5.9688,-5.9769,-5.9868,-5.9886,-6.001,-5.9787,-5.9927,-6.0018,-5.9828,-6.0016,-6.0009,-6.0041,-6.0277,-6.038,-6.0284,-6.0776,-6.0608,-6.0638,-6.0649,-6.0781,-6.0839,-6.0892,-6.0204,-6.0201,-6.0198,0,0,-5.9506,-5.9623,-5.9593,-5.9814,-5.9835,-5.9773,-5.9831,-5.9762,-5.9793,-5.9807,-5.9796,-5.9832,-5.9931,-6.0,-6.0091,-6.0361,-6.036,-6.0491,-6.0537,-6.0575,-6.0606,-6.0748,-6.0806,-6.0186,-6.0186,-6.0185,0,0,-5.9419,-5.9392,-5.9309,-5.9557,-5.9591,-5.9576,-5.9715,-5.9614,-5.9688,-5.966,-5.9551,-5.9556,-5.9775,-5.9775,-5.9627,-6.0021,-5.9831,-5.9864,-6.0014,-6.0071,-6.0116,-6.0113,-5.9402,0,0,0,0,0,-5.9152,-5.9394,-5.932,-5.935,-5.9476,-5.9617,-5.9632,-5.9547,-5.9413,-5.9525,-5.95,-5.9377,-5.9672,-5.9539,-5.9571,-5.9738,-6.0036,-6.0062,-6.0088,-6.0343,-6.0403,-6.0454,0,0,0,0,0,0,-5.9163,-5.9201,-5.9313,-5.931,-5.9337,-5.9607,-5.9362,-5.9346,-5.9399,-5.9373,-5.9385,-5.9377,-5.9308,-5.9516,-5.9547,-5.9707,-5.9391,-6.0046,-6.0069,-6.0089,-6.0364,-6.0413,-6.0455,0,0,0,0,0,-5.9172,-5.9202,-5.9425,-5.9306,-5.933,-5.9273,-5.9353,-5.9337,-5.9377,-5.9339,-5.9326,-5.9308,-5.9315,-5.9334,-5.9534,-5.9695,-5.937,-5.9381,-6.0061,-6.0079,-6.0095,-6.0388,0,0,0,0,0,0,-5.9178,-5.9189,-5.9428,-5.9432,-5.9208,-5.9256,-5.9261,-5.933,-5.9337,-5.9328,-5.9254,-5.9234,-5.9323,-5.9336,-5.9352,-5.9696,-5.9352,-5.9364,-5.9371,-6.0074,-6.0088,-6.0101,0,0,0,0,0,0,-5.9172,-5.9194,-5.943,-5.9312,-5.9301,-5.9242,-5.9246,-5.9403,-5.9339,-5.9252,-5.9234,-5.9245,-5.9299,-5.9339,-5.9351,-5.96,-5.9338,-5.935,-5.9358,-5.9363,-6.0086,-6.0097,0,0,0,0,0,0,-5.9179,-5.9198,-5.931,-5.9302,-5.9292,-5.9331,-5.9378,-5.9512,-5.9237,-5.9254,-5.921,-5.9197,-5.9306,-5.9315,-5.9351,-5.9596,-5.9599,-5.9339,-5.9347,-5.9352,-5.9356,0,0,0,0,0,0,0,-5.9185,-5.9082,-5.9404,-5.9294,-5.9285,-5.9469,-5.9471,-5.9472,-5.9234,-5.9224,-5.9213,-5.9203,-5.9274,-5.9286,-5.9299,-5.9593,0,0,-5.9338,-5.9343,0,0,0,0,0,0,0,0,-5.9072,-5.908,-5.9404,-5.9405,-5.9406,-5.947,-5.947,-5.9471,-5.9232,-5.9224,-5.9215,-5.9207,-5.9277,-5.9287,-5.9297,0,0,0,0,0,0,0,0,0,0,0,0,0,0,0,-5.9405,-5.9405,0,-5.947,-5.947,-5.9471,-5.9231,-5.9224,-5.9217,-5.921,-5.928,-5.9288,-5.9296,0,0,0,0,0,0,0,0,0,0,0,0,0,0,0,0,0,0,0,0,0,0,0,0,0,0,0,0,0,0,0,0,0,0,0,0,0,0,0,0,0,0,0,0,0,0,0,0,0,0,0,0,0,0,0,0,0,0,0,0,0,0,0,0,0,0,0,0,0]}],[{"header":{"parameterUnit":"kt","parameterCategory":2,"dx":1,"dy":1,"la1":30.253999710083008,"la2":30.299108505249023,"lo1":-89.0895004272461,"lo2":-89.04439544677734,"nx":28,"ny":28,"refTime":"2022-10-10T21:00:00:Z","depth":0,"parameterNumber":2,"parameterNumberName":"V-component_of_WINDS"},"data":[-6.1052,-6.1086,-6.1086,-6.1124,-6.113,-6.1155,-6.1164,-6.1175,-6.1184,-6.1214,-6.123,-6.1233,-6.1242,-6.126,-6.1278,-6.1278,-6.1284,-6.1295,-6.1294,-6.1247,-6.124,-6.1234,-6.1225,-6.1297,-6.1297,-6.1341,-6.1341,-6.1341,-6.1011,-6.1018,-6.104,-6.106,-6.1077,-6.1066,-6.1081,-6.1096,-6.1119,-6.1131,-6.1149,-6.1175,-6.1195,-6.12,-6.1219,-6.1233,-6.1228,-6.1238,-6.1235,-6.1236,-6.1187,-6.1178,-6.1241,-6.1241,-6.1241,-6.1241,-6.1241,-6.1241,-6.0937,-6.0958,-6.0971,-6.0995,-6.1005,-6.1019,-6.1039,-6.1043,-6.1064,-6.1086,-6.1083,-6.1109,-6.1121,-6.1145,-6.1154,-6.1173,-6.1162,-6.1172,-6.1174,-6.1176,-6.1177,-6.1107,-6.1177,-6.1176,-6.1176,-6.1176,-6.1176,0,-6.0882,-6.088,-6.0902,-6.0923,-6.0941,-6.0958,-6.0973,-6.0986,-6.0984,-6.1002,-6.1026,-6.104,-6.1068,-6.109,-6.111,-6.1116,-6.1105,-6.1106,-6.1112,-6.1112,-6.1108,-6.1106,-6.1023,-6.1104,-6.1103,-6.1103,-6.1102,-6.1102,-6.0803,-6.083,-6.0846,-6.0861,-6.087,-6.0895,-6.091,-6.0907,-6.0923,-6.0941,-6.096,-6.0983,-6.1002,-6.1041,-6.1046,-6.1067,-6.1061,-6.1091,-6.1064,-6.1062,-6.1057,-6.1054,-6.1055,-6.1096,-6.1096,-6.1097,-6.1098,0,-6.0757,-6.076,-6.0803,-6.0816,-6.082,-6.0848,-6.0859,-6.0881,-6.0884,-6.0914,-6.0921,-6.0925,-6.0949,-6.095,-6.0979,-6.0978,-6.1018,-6.1014,-6.1012,-6.101,-6.1034,-6.103,-6.1121,-6.113,-6.106,-6.106,-6.1061,0,-6.069,-6.0727,-6.0727,-6.0752,-6.0792,-6.0789,-6.0827,-6.0834,-6.0846,-6.087,-6.086,-6.0882,-6.088,-6.0902,-6.0901,-6.0935,-6.0941,-6.0941,-6.094,-6.094,-6.094,-6.0946,-6.0941,-6.0941,-6.0941,-6.094,-6.094,0,-6.0616,-6.0662,-6.0703,-6.0714,-6.0733,-6.0752,-6.0761,-6.0776,-6.0791,-6.0811,-6.082,-6.0844,-6.0857,-6.0874,-6.0872,-6.0853,-6.0915,-6.0889,-6.0914,-6.0914,-6.0926,-6.0925,-6.1007,-6.0939,-6.0939,-6.0939,-6.0939,0,-6.0561,-6.0584,-6.0645,-6.066,-6.0672,-6.07,-6.0723,-6.0747,-6.0764,-6.0765,-6.0781,-6.0774,-6.0808,-6.078,-6.0824,-6.0799,-6.0811,-6.0815,-6.0817,-6.0818,-6.0787,-6.0828,-6.091,-6.0916,-6.082,-6.0819,-6.0818,0,-6.0473,-6.0537,-6.0536,-6.0595,-6.0624,-6.061,-6.0641,-6.0657,-6.0662,-6.0686,-6.0691,-6.0719,-6.07,-6.0708,-6.0731,-6.0736,-6.0769,-6.0732,-6.0762,-6.0763,-6.0754,-6.0829,-6.084,-6.0892,-6.0806,-6.0807,-6.0808,0,-6.0406,-6.0433,-6.0444,-6.0455,-6.0479,-6.0505,-6.0541,-6.0569,-6.0585,-6.0607,-6.0634,-6.0677,-6.0662,-6.0678,-6.0676,-6.0698,-6.0746,-6.068,-6.068,-6.0688,-6.0802,-6.081,-6.0819,-6.0739,-6.0741,-6.0742,-6.0798,0,-6.0314,-6.0349,-6.038,-6.0411,-6.0431,-6.0471,-6.0474,-6.0495,-6.049,-6.0495,-6.0538,-6.0555,-6.0583,-6.0596,-6.0593,-6.0647,-6.0637,-6.0623,-6.0595,-6.0646,-6.0664,-6.0672,-6.0567,-6.0566,-6.0565,-6.0565,0,0,-6.0227,-6.0278,-6.0278,-6.0315,-6.0332,-6.0319,-6.0359,-6.0375,-6.0407,-6.0418,-6.0403,-6.0464,-6.0479,-6.0531,-6.0547,-6.0561,-6.0569,-6.0553,-6.0622,-6.0629,-6.0635,-6.0654,-6.0663,-6.0564,-6.0563,-6.0563,-6.0563,0,-6.0194,-6.0213,-6.0255,-6.0271,-6.0296,-6.03,-6.031,-6.0332,-6.0337,-6.0383,-6.0369,-6.0397,-6.0449,-6.0463,-6.0477,-6.0547,-6.0534,-6.0556,-6.059,-6.0616,-6.0623,-6.063,-6.065,-6.0658,-6.0561,-6.0562,-6.0562,0,-6.0125,-6.0142,-6.0164,-6.0207,-6.0224,-6.0256,-6.0228,-6.0266,-6.0289,-6.0272,-6.0318,-6.0327,-6.0349,-6.0401,-6.0424,-6.0411,-6.0502,-6.0476,-6.048,-6.0482,-6.0507,-6.0515,-6.0523,-6.0419,-6.0419,-6.0418,0,0,-6.0096,-6.0131,-6.0149,-6.0201,-6.0212,-6.022,-6.0239,-6.0237,-6.0258,-6.0267,-6.0279,-6.0299,-6.0328,-6.0348,-6.0376,-6.0434,-6.0436,-6.0458,-6.0465,-6.0471,-6.0475,-6.0501,-6.051,-6.0416,-6.0416,-6.0416,0,0,-6.0082,-6.0106,-6.0099,-6.016,-6.0181,-6.0202,-6.0232,-6.0223,-6.025,-6.0246,-6.0244,-6.0249,-6.0298,-6.0309,-6.0282,-6.0366,-6.0338,-6.0345,-6.0357,-6.0365,-6.0372,-6.0367,-6.0254,0,0,0,0,0,-6.0051,-6.0103,-6.0096,-6.0107,-6.0163,-6.0206,-6.0212,-6.0213,-6.0192,-6.0216,-6.0224,-6.0212,-6.0293,-6.0269,-6.0279,-6.0308,-6.0391,-6.0396,-6.04,-6.0429,-6.0438,-6.0445,0,0,0,0,0,0,-6.0056,-6.0069,-6.0094,-6.0118,-6.0131,-6.0204,-6.0169,-6.017,-6.019,-6.0187,-6.021,-6.0212,-6.0213,-6.0264,-6.0273,-6.0301,-6.0251,-6.0393,-6.0397,-6.04,-6.0432,-6.0439,-6.0445,0,0,0,0,0,-6.0059,-6.007,-6.016,-6.0117,-6.0128,-6.0141,-6.0167,-6.0168,-6.0183,-6.0198,-6.0199,-6.0182,-6.0214,-6.0221,-6.0269,-6.0297,-6.0245,-6.0248,-6.0395,-6.0398,-6.0401,-6.0435,0,0,0,0,0,0,-6.0062,-6.007,-6.0162,-6.0165,-6.0099,-6.0136,-6.0143,-6.0166,-6.0192,-6.0195,-6.0168,-6.0165,-6.0215,-6.0221,-6.0227,-6.0295,-6.024,-6.0243,-6.0245,-6.0398,-6.04,-6.0402,0,0,0,0,0,0,-6.0065,-6.0073,-6.0163,-6.014,-6.014,-6.0133,-6.0138,-6.018,-6.0193,-6.0162,-6.016,-6.0167,-6.0205,-6.022,-6.0225,-6.029,-6.0236,-6.0239,-6.0241,-6.0243,-6.04,-6.0401,0,0,0,0,0,0,-6.0068,-6.0076,-6.0139,-6.014,-6.014,-6.0176,-6.0169,-6.0226,-6.0174,-6.0161,-6.0169,-6.0167,-6.0206,-6.021,-6.0224,-6.0287,-6.0289,-6.0236,-6.0238,-6.024,-6.0241,0,0,0,0,0,0,0,-6.0071,-6.0021,-6.0143,-6.0139,-6.0139,-6.0194,-6.0195,-6.0196,-6.0174,-6.0172,-6.017,-6.0168,-6.0217,-6.0221,-6.0224,-6.0285,0,0,-6.0236,-6.0237,0,0,0,0,0,0,0,0,-6.0018,-6.002,-6.0143,-6.0144,-6.0144,-6.0195,-6.0195,-6.0196,-6.0173,-6.0172,-6.017,-6.0169,-6.0218,-6.0221,-6.0224,0,0,0,0,0,0,0,0,0,0,0,0,0,0,0,-6.0143,-6.0144,0,-6.0195,-6.0195,-6.0196,-6.0173,-6.0172,-6.0171,-6.0169,-6.0219,-6.0221,-6.0224,0,0,0,0,0,0,0,0,0,0,0,0,0,0,0,0,0,0,0,0,0,0,0,0,0,0,0,0,0,0,0,0,0,0,0,0,0,0,0,0,0,0,0,0,0,0,0,0,0,0,0,0,0,0,0,0,0,0,0,0,0,0,0,0,0,0,0,0,0]}]]]